Year,Month,Day,Hour,Minute,Value (Times are PST for temperature in C)
2016,01,24,00,01,7.00
2016,01,24,00,02,7.00
2016,01,24,00,03,7.00
2016,01,24,00,04,7.00
2016,01,24,00,06,7.00
2016,01,24,00,07,7.00
2016,01,24,00,09,6.90
2016,01,24,00,11,6.90
2016,01,24,00,12,6.90
2016,01,24,00,13,6.80
2016,01,24,00,14,6.80
2016,01,24,00,16,6.80
2016,01,24,00,17,6.80
2016,01,24,00,18,6.80
2016,01,24,00,19,6.80
2016,01,24,00,21,6.80
2016,01,24,00,22,6.80
2016,01,24,00,23,6.80
2016,01,24,00,24,6.80
2016,01,24,00,25,6.70
2016,01,24,00,26,6.70
2016,01,24,00,27,6.70
2016,01,24,00,28,6.70
2016,01,24,00,29,6.70
2016,01,24,00,31,6.70
2016,01,24,00,32,6.70
2016,01,24,00,33,6.70
2016,01,24,00,34,6.70
2016,01,24,00,35,6.70
2016,01,24,00,36,6.70
2016,01,24,00,37,6.70
2016,01,24,00,38,6.70
2016,01,24,00,39,6.70
2016,01,24,00,40,6.70
2016,01,24,00,41,6.70
2016,01,24,00,42,6.70
2016,01,24,00,43,6.70
2016,01,24,00,44,6.70
2016,01,24,00,45,6.70
2016,01,24,00,46,6.70
2016,01,24,00,47,6.70
2016,01,24,00,48,6.70
2016,01,24,00,49,6.70
2016,01,24,00,50,6.70
2016,01,24,00,51,6.60
2016,01,24,00,52,6.60
2016,01,24,00,53,6.60
2016,01,24,00,54,6.60
2016,01,24,00,55,6.60
2016,01,24,00,56,6.60
2016,01,24,00,57,6.60
2016,01,24,00,58,6.60
2016,01,24,00,59,6.60
2016,01,24,01,00,6.60
2016,01,24,01,01,6.60
2016,01,24,01,02,6.60
2016,01,24,01,03,6.60
2016,01,24,01,04,6.60
2016,01,24,01,05,6.60
2016,01,24,01,06,6.60
2016,01,24,01,07,6.60
2016,01,24,01,08,6.60
2016,01,24,01,09,6.60
2016,01,24,01,10,6.60
2016,01,24,01,11,6.60
2016,01,24,01,12,6.60
2016,01,24,01,13,6.60
2016,01,24,01,14,6.60
2016,01,24,01,15,6.60
2016,01,24,01,16,6.60
2016,01,24,01,17,6.60
2016,01,24,01,18,6.60
2016,01,24,01,19,6.60
2016,01,24,01,20,6.60
2016,01,24,01,21,6.60
2016,01,24,01,22,6.60
2016,01,24,01,23,6.60
2016,01,24,01,24,6.60
2016,01,24,01,25,6.70
2016,01,24,01,26,6.70
2016,01,24,01,27,6.70
2016,01,24,01,28,6.70
2016,01,24,01,29,6.70
2016,01,24,01,30,6.70
2016,01,24,01,31,6.70
2016,01,24,01,32,6.70
2016,01,24,01,33,6.70
2016,01,24,01,34,6.70
2016,01,24,01,35,6.70
2016,01,24,01,36,6.70
2016,01,24,01,37,6.70
2016,01,24,01,38,6.70
2016,01,24,01,39,6.70
2016,01,24,01,40,6.70
2016,01,24,01,41,6.70
2016,01,24,01,42,6.70
2016,01,24,01,43,6.70
2016,01,24,01,44,6.70
2016,01,24,01,45,6.70
2016,01,24,01,46,6.70
2016,01,24,01,48,6.70
2016,01,24,01,49,6.70
2016,01,24,01,51,6.70
2016,01,24,01,52,6.70
2016,01,24,01,53,6.70
2016,01,24,01,54,6.70
2016,01,24,01,56,6.70
2016,01,24,01,57,6.70
2016,01,24,01,58,6.70
2016,01,24,01,59,6.70
2016,01,24,02,01,6.70
2016,01,24,02,02,6.70
2016,01,24,02,03,6.70
2016,01,24,02,04,6.70
2016,01,24,02,06,6.60
2016,01,24,02,07,6.60
2016,01,24,02,08,6.60
2016,01,24,02,09,6.60
2016,01,24,02,11,6.60
2016,01,24,02,12,6.60
2016,01,24,02,13,6.60
2016,01,24,02,14,6.60
2016,01,24,02,16,6.60
2016,01,24,02,17,6.60
2016,01,24,02,18,6.60
2016,01,24,02,19,6.60
2016,01,24,02,21,6.60
2016,01,24,02,22,6.60
2016,01,24,02,23,6.60
2016,01,24,02,24,6.60
2016,01,24,02,26,6.60
2016,01,24,02,27,6.60
2016,01,24,02,28,6.60
2016,01,24,02,29,6.40
2016,01,24,02,31,6.40
2016,01,24,02,32,6.40
2016,01,24,02,33,6.40
2016,01,24,02,34,6.40
2016,01,24,02,35,6.40
2016,01,24,02,36,6.40
2016,01,24,02,37,6.40
2016,01,24,02,38,6.40
2016,01,24,02,39,6.40
2016,01,24,02,40,6.30
2016,01,24,02,41,6.30
2016,01,24,02,42,6.30
2016,01,24,02,43,6.30
2016,01,24,02,44,6.30
2016,01,24,02,45,6.30
2016,01,24,02,46,6.30
2016,01,24,02,47,6.30
2016,01,24,02,48,6.20
2016,01,24,02,49,6.20
2016,01,24,02,50,6.20
2016,01,24,02,51,6.20
2016,01,24,02,52,6.20
2016,01,24,02,53,6.20
2016,01,24,02,54,6.20
2016,01,24,02,55,6.20
2016,01,24,02,56,6.20
2016,01,24,02,57,6.20
2016,01,24,02,58,6.20
2016,01,24,02,59,6.20
2016,01,24,03,00,6.20
2016,01,24,03,01,6.10
2016,01,24,03,02,6.10
2016,01,24,03,03,6.10
2016,01,24,03,04,6.10
2016,01,24,03,05,6.10
2016,01,24,03,06,6.10
2016,01,24,03,07,6.10
2016,01,24,03,08,6.10
2016,01,24,03,09,6.10
2016,01,24,03,10,6.10
2016,01,24,03,11,6.10
2016,01,24,03,12,6.10
2016,01,24,03,13,6.10
2016,01,24,03,14,6.00
2016,01,24,03,15,6.00
2016,01,24,03,16,6.00
2016,01,24,03,17,6.00
2016,01,24,03,18,6.00
2016,01,24,03,19,6.00
2016,01,24,03,20,6.00
2016,01,24,03,21,6.00
2016,01,24,03,22,6.00
2016,01,24,03,23,5.90
2016,01,24,03,24,5.90
2016,01,24,03,25,5.90
2016,01,24,03,26,5.90
2016,01,24,03,27,5.90
2016,01,24,03,28,5.90
2016,01,24,03,29,5.90
2016,01,24,03,30,5.90
2016,01,24,03,31,5.90
2016,01,24,03,32,6.00
2016,01,24,03,33,6.00
2016,01,24,03,34,6.00
2016,01,24,03,35,6.10
2016,01,24,03,36,6.10
2016,01,24,03,37,6.10
2016,01,24,03,38,6.10
2016,01,24,03,39,6.10
2016,01,24,03,40,6.10
2016,01,24,03,41,6.10
2016,01,24,03,42,6.10
2016,01,24,03,43,6.10
2016,01,24,03,44,6.20
2016,01,24,03,45,6.20
2016,01,24,03,47,6.20
2016,01,24,03,48,6.20
2016,01,24,03,49,6.20
2016,01,24,03,51,6.20
2016,01,24,03,52,6.20
2016,01,24,03,53,6.20
2016,01,24,03,54,6.20
2016,01,24,03,56,6.20
2016,01,24,03,57,6.20
2016,01,24,03,58,6.20
2016,01,24,03,59,6.20
2016,01,24,04,01,6.20
2016,01,24,04,02,6.20
2016,01,24,04,03,6.20
2016,01,24,04,04,6.10
2016,01,24,04,06,6.10
2016,01,24,04,07,6.10
2016,01,24,04,08,6.00
2016,01,24,04,09,6.00
2016,01,24,04,11,5.90
2016,01,24,04,12,5.90
2016,01,24,04,13,5.90
2016,01,24,04,14,5.80
2016,01,24,04,16,5.70
2016,01,24,04,17,5.70
2016,01,24,04,18,5.70
2016,01,24,04,19,5.70
2016,01,24,04,21,5.60
2016,01,24,04,22,5.50
2016,01,24,04,23,5.50
2016,01,24,04,24,5.50
2016,01,24,04,26,5.40
2016,01,24,04,27,5.40
2016,01,24,04,28,5.40
2016,01,24,04,29,5.40
2016,01,24,04,31,5.30
2016,01,24,04,32,5.30
2016,01,24,04,33,5.30
2016,01,24,04,34,5.30
2016,01,24,04,36,5.30
2016,01,24,04,37,5.30
2016,01,24,04,38,5.30
2016,01,24,04,39,5.40
2016,01,24,04,41,5.40
2016,01,24,04,42,5.50
2016,01,24,04,43,5.50
2016,01,24,04,44,5.50
2016,01,24,04,45,5.50
2016,01,24,04,46,5.50
2016,01,24,04,47,5.50
2016,01,24,04,48,5.50
2016,01,24,04,49,5.50
2016,01,24,04,50,5.50
2016,01,24,04,51,5.50
2016,01,24,04,52,5.40
2016,01,24,04,53,5.40
2016,01,24,04,54,5.40
2016,01,24,04,55,5.40
2016,01,24,04,56,5.40
2016,01,24,04,57,5.40
2016,01,24,04,58,5.40
2016,01,24,04,59,5.40
2016,01,24,05,00,5.40
2016,01,24,05,01,5.50
2016,01,24,05,02,5.50
2016,01,24,05,03,5.50
2016,01,24,05,04,5.50
2016,01,24,05,05,5.50
2016,01,24,05,06,5.50
2016,01,24,05,07,5.50
2016,01,24,05,08,5.40
2016,01,24,05,09,5.40
2016,01,24,05,10,5.40
2016,01,24,05,11,5.40
2016,01,24,05,12,5.40
2016,01,24,05,13,5.40
2016,01,24,05,14,5.40
2016,01,24,05,15,5.40
2016,01,24,05,16,5.30
2016,01,24,05,17,5.30
2016,01,24,05,18,5.30
2016,01,24,05,19,5.30
2016,01,24,05,20,5.30
2016,01,24,05,21,5.30
2016,01,24,05,22,5.30
2016,01,24,05,23,5.30
2016,01,24,05,24,5.30
2016,01,24,05,25,5.30
2016,01,24,05,26,5.30
2016,01,24,05,27,5.30
2016,01,24,05,28,5.30
2016,01,24,05,29,5.30
2016,01,24,05,30,5.30
2016,01,24,05,31,5.30
2016,01,24,05,32,5.30
2016,01,24,05,33,5.30
2016,01,24,05,34,5.30
2016,01,24,05,35,5.30
2016,01,24,05,36,5.30
2016,01,24,05,37,5.30
2016,01,24,05,38,5.30
2016,01,24,05,39,5.40
2016,01,24,05,40,5.40
2016,01,24,05,41,5.40
2016,01,24,05,42,5.40
2016,01,24,05,43,5.50
2016,01,24,05,44,5.50
2016,01,24,05,45,5.50
2016,01,24,05,46,5.50
2016,01,24,05,47,5.50
2016,01,24,05,48,5.50
2016,01,24,05,49,5.50
2016,01,24,05,50,5.50
2016,01,24,05,51,5.40
2016,01,24,05,52,5.40
2016,01,24,05,53,5.40
2016,01,24,05,54,5.40
2016,01,24,05,55,5.40
2016,01,24,05,56,5.30
2016,01,24,05,57,5.30
2016,01,24,05,58,5.40
2016,01,24,05,59,5.40
2016,01,24,06,00,5.40
2016,01,24,06,01,5.40
2016,01,24,06,02,5.40
2016,01,24,06,04,5.40
2016,01,24,06,06,5.40
2016,01,24,06,07,5.40
2016,01,24,06,08,5.30
2016,01,24,06,09,5.30
2016,01,24,06,11,5.30
2016,01,24,06,12,5.30
2016,01,24,06,13,5.30
2016,01,24,06,14,5.30
2016,01,24,06,16,5.30
2016,01,24,06,17,5.30
2016,01,24,06,18,5.30
2016,01,24,06,19,5.30
2016,01,24,06,21,5.30
2016,01,24,06,22,5.20
2016,01,24,06,23,5.20
2016,01,24,06,24,5.20
2016,01,24,06,26,5.10
2016,01,24,06,27,5.10
2016,01,24,06,28,5.10
2016,01,24,06,29,5.10
2016,01,24,06,31,5.10
2016,01,24,06,32,5.10
2016,01,24,06,33,5.10
2016,01,24,06,34,5.10
2016,01,24,06,36,5.10
2016,01,24,06,37,5.10
2016,01,24,06,38,4.90
2016,01,24,06,39,4.90
2016,01,24,06,41,4.90
2016,01,24,06,42,4.90
2016,01,24,06,43,4.90
2016,01,24,06,44,4.90
2016,01,24,06,46,4.80
2016,01,24,06,47,4.70
2016,01,24,06,48,4.70
2016,01,24,06,49,4.70
2016,01,24,06,51,4.60
2016,01,24,06,52,4.60
2016,01,24,06,53,4.60
2016,01,24,06,54,4.60
2016,01,24,06,56,4.60
2016,01,24,06,57,4.60
2016,01,24,06,58,4.50
2016,01,24,06,59,4.50
2016,01,24,07,01,4.50
2016,01,24,07,02,4.40
2016,01,24,07,03,4.40
2016,01,24,07,04,4.40
2016,01,24,07,06,4.40
2016,01,24,07,07,4.30
2016,01,24,07,08,4.30
2016,01,24,07,09,4.30
2016,01,24,07,11,4.30
2016,01,24,07,12,4.30
2016,01,24,07,13,4.20
2016,01,24,07,14,4.20
2016,01,24,07,15,4.20
2016,01,24,07,16,4.20
2016,01,24,07,17,4.20
2016,01,24,07,18,4.20
2016,01,24,07,19,4.20
2016,01,24,07,20,4.20
2016,01,24,07,21,4.30
2016,01,24,07,22,4.30
2016,01,24,07,23,4.40
2016,01,24,07,24,4.40
2016,01,24,07,25,4.40
2016,01,24,07,26,4.40
2016,01,24,07,27,4.40
2016,01,24,07,28,4.40
2016,01,24,07,29,4.40
2016,01,24,07,30,4.40
2016,01,24,07,31,4.40
2016,01,24,07,32,4.40
2016,01,24,07,33,4.40
2016,01,24,07,34,4.40
2016,01,24,07,35,4.40
2016,01,24,07,36,4.40
2016,01,24,07,37,4.40
2016,01,24,07,38,4.40
2016,01,24,07,39,4.40
2016,01,24,07,40,4.30
2016,01,24,07,41,4.30
2016,01,24,07,42,4.30
2016,01,24,07,43,4.30
2016,01,24,07,44,4.40
2016,01,24,07,45,4.40
2016,01,24,07,46,4.40
2016,01,24,07,47,4.40
2016,01,24,07,48,4.40
2016,01,24,07,49,4.40
2016,01,24,07,50,4.40
2016,01,24,07,51,4.40
2016,01,24,07,52,4.40
2016,01,24,07,53,4.40
2016,01,24,07,54,4.40
2016,01,24,07,55,4.40
2016,01,24,07,56,4.40
2016,01,24,07,57,4.40
2016,01,24,07,58,4.50
2016,01,24,07,59,4.50
2016,01,24,08,00,4.50
2016,01,24,08,01,4.50
2016,01,24,08,02,4.50
2016,01,24,08,03,4.60
2016,01,24,08,04,4.60
2016,01,24,08,05,4.60
2016,01,24,08,06,4.60
2016,01,24,08,07,4.60
2016,01,24,08,08,4.60
2016,01,24,08,09,4.60
2016,01,24,08,10,4.60
2016,01,24,08,11,4.70
2016,01,24,08,12,4.70
2016,01,24,08,13,4.70
2016,01,24,08,14,4.80
2016,01,24,08,15,4.80
2016,01,24,08,16,4.80
2016,01,24,08,17,4.80
2016,01,24,08,18,4.80
2016,01,24,08,19,4.80
2016,01,24,08,20,4.80
2016,01,24,08,21,4.80
2016,01,24,08,22,4.80
2016,01,24,08,23,4.80
2016,01,24,08,24,4.80
2016,01,24,08,25,4.80
2016,01,24,08,26,4.80
2016,01,24,08,27,4.80
2016,01,24,08,29,4.80
2016,01,24,08,30,4.80
2016,01,24,08,32,4.80
2016,01,24,08,33,4.80
2016,01,24,08,34,4.90
2016,01,24,08,36,4.90
2016,01,24,08,37,4.90
2016,01,24,08,38,4.90
2016,01,24,08,39,4.90
2016,01,24,08,41,4.90
2016,01,24,08,42,4.90
2016,01,24,08,43,5.10
2016,01,24,08,44,5.10
2016,01,24,08,46,5.10
2016,01,24,08,47,5.20
2016,01,24,08,48,5.20
2016,01,24,08,49,5.30
2016,01,24,08,51,5.30
2016,01,24,08,52,5.40
2016,01,24,08,53,5.40
2016,01,24,08,54,5.50
2016,01,24,08,56,5.60
2016,01,24,08,57,5.60
2016,01,24,08,58,5.70
2016,01,24,08,59,5.70
2016,01,24,09,01,5.90
2016,01,24,09,02,5.90
2016,01,24,09,03,6.00
2016,01,24,09,04,6.10
2016,01,24,09,06,6.20
2016,01,24,09,07,6.20
2016,01,24,09,08,6.30
2016,01,24,09,09,6.40
2016,01,24,09,11,6.40
2016,01,24,09,12,6.60
2016,01,24,09,13,6.60
2016,01,24,09,14,6.60
2016,01,24,09,16,6.70
2016,01,24,09,17,6.80
2016,01,24,09,18,6.80
2016,01,24,09,19,6.80
2016,01,24,09,21,6.80
2016,01,24,09,22,6.80
2016,01,24,09,23,6.90
2016,01,24,09,24,6.90
2016,01,24,09,26,6.90
2016,01,24,09,27,6.90
2016,01,24,09,28,6.90
2016,01,24,09,29,7.00
2016,01,24,09,31,7.00
2016,01,24,09,32,7.00
2016,01,24,09,33,7.00
2016,01,24,09,34,7.00
2016,01,24,09,36,7.10
2016,01,24,09,37,7.10
2016,01,24,09,38,7.20
2016,01,24,09,39,7.20
2016,01,24,09,41,7.30
2016,01,24,09,42,7.30
2016,01,24,09,43,7.30
2016,01,24,09,44,7.30
2016,01,24,09,45,7.40
2016,01,24,09,46,7.40
2016,01,24,09,47,7.40
2016,01,24,09,48,7.40
2016,01,24,09,49,7.50
2016,01,24,09,51,7.50
2016,01,24,09,52,7.50
2016,01,24,09,53,7.60
2016,01,24,09,54,7.60
2016,01,24,09,55,7.60
2016,01,24,09,56,7.60
2016,01,24,09,57,7.60
2016,01,24,09,58,7.60
2016,01,24,09,59,7.60
2016,01,24,10,00,7.60
2016,01,24,10,01,7.60
2016,01,24,10,02,7.60
2016,01,24,10,03,7.60
2016,01,24,10,04,7.70
2016,01,24,10,05,7.70
2016,01,24,10,06,7.70
2016,01,24,10,07,7.70
2016,01,24,10,08,7.80
2016,01,24,10,09,7.80
2016,01,24,10,10,7.80
2016,01,24,10,11,7.80
2016,01,24,10,12,7.80
2016,01,24,10,13,7.80
2016,01,24,10,14,7.90
2016,01,24,10,15,7.90
2016,01,24,10,16,7.90
2016,01,24,10,17,8.00
2016,01,24,10,18,8.00
2016,01,24,10,19,8.00
2016,01,24,10,20,8.00
2016,01,24,10,21,8.10
2016,01,24,10,22,8.10
2016,01,24,10,23,8.10
2016,01,24,10,24,8.10
2016,01,24,10,25,8.10
2016,01,24,10,26,8.20
2016,01,24,10,27,8.20
2016,01,24,10,28,8.20
2016,01,24,10,29,8.20
2016,01,24,10,30,8.20
2016,01,24,10,31,8.20
2016,01,24,10,32,8.30
2016,01,24,10,33,8.30
2016,01,24,10,34,8.40
2016,01,24,10,35,8.40
2016,01,24,10,36,8.50
2016,01,24,10,37,8.60
2016,01,24,10,38,8.60
2016,01,24,10,39,8.60
2016,01,24,10,40,8.60
2016,01,24,10,41,8.60
2016,01,24,10,42,8.60
2016,01,24,10,43,8.60
2016,01,24,10,44,8.60
2016,01,24,10,45,8.60
2016,01,24,10,46,8.60
2016,01,24,10,47,8.50
2016,01,24,10,48,8.50
2016,01,24,10,49,8.50
2016,01,24,10,50,8.50
2016,01,24,10,51,8.40
2016,01,24,10,52,8.40
2016,01,24,10,53,8.40
2016,01,24,10,54,8.30
2016,01,24,10,55,8.30
2016,01,24,10,56,8.30
2016,01,24,10,57,8.30
2016,01,24,10,58,8.30
2016,01,24,10,59,8.30
2016,01,24,11,00,8.30
2016,01,24,11,01,8.20
2016,01,24,11,02,8.20
2016,01,24,11,03,8.20
2016,01,24,11,04,8.20
2016,01,24,11,05,8.20
2016,01,24,11,06,8.20
2016,01,24,11,07,8.20
2016,01,24,11,08,8.20
2016,01,24,11,09,8.20
2016,01,24,11,10,8.30
2016,01,24,11,11,8.30
2016,01,24,11,12,8.40
2016,01,24,11,14,8.40
2016,01,24,11,16,8.50
2016,01,24,11,17,8.50
2016,01,24,11,18,8.50
2016,01,24,11,19,8.50
2016,01,24,11,21,8.40
2016,01,24,11,22,8.40
2016,01,24,11,23,8.40
2016,01,24,11,24,8.40
2016,01,24,11,26,8.40
2016,01,24,11,27,8.40
2016,01,24,11,28,8.30
2016,01,24,11,29,8.30
2016,01,24,11,31,8.20
2016,01,24,11,32,8.20
2016,01,24,11,33,8.20
2016,01,24,11,34,8.20
2016,01,24,11,36,8.20
2016,01,24,11,37,8.20
2016,01,24,11,38,8.20
2016,01,24,11,39,8.20
2016,01,24,11,41,8.20
2016,01,24,11,42,8.20
2016,01,24,11,43,8.20
2016,01,24,11,44,8.20
2016,01,24,11,46,8.20
2016,01,24,11,47,8.20
2016,01,24,11,48,8.20
2016,01,24,11,49,8.20
2016,01,24,11,51,8.20
2016,01,24,11,52,8.20
2016,01,24,11,53,8.20
2016,01,24,11,54,8.20
2016,01,24,11,56,8.20
2016,01,24,11,57,8.20
2016,01,24,11,58,8.20
2016,01,24,11,59,8.20
2016,01,24,12,01,8.20
2016,01,24,12,02,8.30
2016,01,24,12,03,8.30
2016,01,24,12,04,8.30
2016,01,24,12,06,8.30
2016,01,24,12,07,8.30
2016,01,24,12,08,8.40
2016,01,24,12,09,8.40
2016,01,24,12,11,8.40
2016,01,24,12,12,8.40
2016,01,24,12,13,8.50
2016,01,24,12,14,8.50
2016,01,24,12,16,8.40
2016,01,24,12,17,8.40
2016,01,24,12,18,8.40
2016,01,24,12,19,8.40
2016,01,24,12,21,8.50
2016,01,24,12,22,8.50
2016,01,24,12,23,8.50
2016,01,24,12,24,8.40
2016,01,24,12,26,8.40
2016,01,24,12,27,8.40
2016,01,24,12,28,8.40
2016,01,24,12,29,8.30
2016,01,24,12,31,8.30
2016,01,24,12,32,8.30
2016,01,24,12,33,8.40
2016,01,24,12,34,8.30
2016,01,24,12,35,8.30
2016,01,24,12,36,8.30
2016,01,24,12,37,8.20
2016,01,24,12,38,8.20
2016,01,24,12,39,8.20
2016,01,24,12,40,8.20
2016,01,24,12,41,8.20
2016,01,24,12,42,8.20
2016,01,24,12,43,8.20
2016,01,24,12,44,8.20
2016,01,24,12,45,8.20
2016,01,24,12,46,8.10
2016,01,24,12,47,8.10
2016,01,24,12,48,8.10
2016,01,24,12,49,8.00
2016,01,24,12,50,8.00
2016,01,24,12,51,8.00
2016,01,24,12,52,8.00
2016,01,24,12,53,8.00
2016,01,24,12,54,8.00
2016,01,24,12,55,8.00
2016,01,24,12,56,8.00
2016,01,24,12,57,8.00
2016,01,24,12,58,8.00
2016,01,24,12,59,8.00
2016,01,24,13,00,8.00
2016,01,24,13,01,8.10
2016,01,24,13,02,8.10
2016,01,24,13,03,8.10
2016,01,24,13,04,8.10
2016,01,24,13,05,8.10
2016,01,24,13,06,8.10
2016,01,24,13,07,8.10
2016,01,24,13,08,8.10
2016,01,24,13,09,8.10
2016,01,24,13,10,8.10
2016,01,24,13,11,8.10
2016,01,24,13,12,8.10
2016,01,24,13,13,8.00
2016,01,24,13,14,8.00
2016,01,24,13,15,8.00
2016,01,24,13,16,8.00
2016,01,24,13,17,8.00
2016,01,24,13,18,8.00
2016,01,24,13,19,8.00
2016,01,24,13,20,8.00
2016,01,24,13,21,8.00
2016,01,24,13,22,8.00
2016,01,24,13,23,8.00
2016,01,24,13,24,8.00
2016,01,24,13,25,8.00
2016,01,24,13,26,8.00
2016,01,24,13,27,8.00
2016,01,24,13,28,8.00
2016,01,24,13,29,7.90
2016,01,24,13,30,7.90
2016,01,24,13,31,8.00
2016,01,24,13,32,8.00
2016,01,24,13,33,8.00
2016,01,24,13,34,8.00
2016,01,24,13,35,8.00
2016,01,24,13,36,8.00
2016,01,24,13,37,8.00
2016,01,24,13,38,8.00
2016,01,24,13,39,8.00
2016,01,24,13,40,8.00
2016,01,24,13,41,8.00
2016,01,24,13,42,8.00
2016,01,24,13,43,8.00
2016,01,24,13,44,8.00
2016,01,24,13,45,8.00
2016,01,24,13,46,8.00
2016,01,24,13,47,8.00
2016,01,24,13,48,8.00
2016,01,24,13,49,8.00
2016,01,24,13,50,8.00
2016,01,24,13,51,8.00
2016,01,24,13,52,8.00
2016,01,24,13,53,8.00
2016,01,24,13,54,8.00
2016,01,24,13,55,8.10
2016,01,24,13,56,8.10
2016,01,24,13,57,8.10
2016,01,24,13,59,8.10
2016,01,24,14,00,8.10
2016,01,24,14,02,8.10
2016,01,24,14,03,8.20
2016,01,24,14,04,8.20
2016,01,24,14,06,8.20
2016,01,24,14,07,8.20
2016,01,24,14,08,8.20
2016,01,24,14,09,8.20
2016,01,24,14,11,8.20
2016,01,24,14,12,8.20
2016,01,24,14,13,8.20
2016,01,24,14,14,8.20
2016,01,24,14,16,8.20
2016,01,24,14,17,8.20
2016,01,24,14,18,8.20
2016,01,24,14,19,8.20
2016,01,24,14,21,8.20
2016,01,24,14,22,8.20
2016,01,24,14,23,8.20
2016,01,24,14,24,8.20
2016,01,24,14,26,8.20
2016,01,24,14,27,8.20
2016,01,24,14,28,8.20
2016,01,24,14,29,8.20
2016,01,24,14,31,8.20
2016,01,24,14,32,8.20
2016,01,24,14,33,8.20
2016,01,24,14,34,8.20
2016,01,24,14,36,8.20
2016,01,24,14,37,8.10
2016,01,24,14,38,8.20
2016,01,24,14,39,8.20
2016,01,24,14,41,8.20
2016,01,24,14,42,8.20
2016,01,24,14,43,8.20
2016,01,24,14,44,8.20
2016,01,24,14,46,8.20
2016,01,24,14,47,8.20
2016,01,24,14,48,8.20
2016,01,24,14,49,8.20
2016,01,24,14,51,8.20
2016,01,24,14,52,8.10
2016,01,24,14,53,8.10
2016,01,24,14,54,8.10
2016,01,24,14,56,8.00
2016,01,24,14,57,8.00
2016,01,24,14,58,8.00
2016,01,24,14,59,8.00
2016,01,24,15,01,8.00
2016,01,24,15,02,8.00
2016,01,24,15,03,8.00
2016,01,24,15,04,7.90
2016,01,24,15,06,7.90
2016,01,24,15,07,8.00
2016,01,24,15,08,8.00
2016,01,24,15,09,8.00
2016,01,24,15,11,8.00
2016,01,24,15,12,8.00
2016,01,24,15,13,8.00
2016,01,24,15,14,7.90
2016,01,24,15,15,7.90
2016,01,24,15,16,7.90
2016,01,24,15,17,7.90
2016,01,24,15,18,7.90
2016,01,24,15,19,7.90
2016,01,24,15,20,7.90
2016,01,24,15,21,7.80
2016,01,24,15,22,7.80
2016,01,24,15,23,7.80
2016,01,24,15,24,7.80
2016,01,24,15,25,7.80
2016,01,24,15,26,7.80
2016,01,24,15,27,7.80
2016,01,24,15,28,7.80
2016,01,24,15,29,7.80
2016,01,24,15,30,7.90
2016,01,24,15,31,7.90
2016,01,24,15,32,7.90
2016,01,24,15,33,7.90
2016,01,24,15,34,7.90
2016,01,24,15,35,7.90
2016,01,24,15,36,7.90
2016,01,24,15,37,7.90
2016,01,24,15,38,7.90
2016,01,24,15,39,7.90
2016,01,24,15,40,7.80
2016,01,24,15,41,7.80
2016,01,24,15,42,7.80
2016,01,24,15,43,7.80
2016,01,24,15,44,7.80
2016,01,24,15,45,7.80
2016,01,24,15,46,7.80
2016,01,24,15,47,7.80
2016,01,24,15,48,7.80
2016,01,24,15,49,7.80
2016,01,24,15,50,7.80
2016,01,24,15,51,7.80
2016,01,24,15,52,7.80
2016,01,24,15,53,7.80
2016,01,24,15,54,7.80
2016,01,24,15,55,7.80
2016,01,24,15,56,7.80
2016,01,24,15,57,7.80
2016,01,24,15,58,7.80
2016,01,24,15,59,7.80
2016,01,24,16,00,7.80
2016,01,24,16,01,7.80
2016,01,24,16,02,7.80
2016,01,24,16,03,7.80
2016,01,24,16,04,7.80
2016,01,24,16,05,7.80
2016,01,24,16,06,7.80
2016,01,24,16,07,7.80
2016,01,24,16,08,7.80
2016,01,24,16,09,7.80
2016,01,24,16,10,7.80
2016,01,24,16,11,7.80
2016,01,24,16,12,7.80
2016,01,24,16,13,7.80
2016,01,24,16,14,7.80
2016,01,24,16,15,7.80
2016,01,24,16,16,7.80
2016,01,24,16,17,7.80
2016,01,24,16,18,7.80
2016,01,24,16,19,7.80
2016,01,24,16,20,7.80
2016,01,24,16,21,7.80
2016,01,24,16,22,7.80
2016,01,24,16,23,7.80
2016,01,24,16,24,7.70
2016,01,24,16,25,7.70
2016,01,24,16,26,7.70
2016,01,24,16,27,7.70
2016,01,24,16,29,7.70
2016,01,24,16,31,7.70
2016,01,24,16,32,7.70
2016,01,24,16,33,7.60
2016,01,24,16,34,7.60
2016,01,24,16,36,7.60
2016,01,24,16,37,7.60
2016,01,24,16,38,7.60
2016,01,24,16,39,7.60
2016,01,24,16,41,7.60
2016,01,24,16,42,7.60
2016,01,24,16,43,7.60
2016,01,24,16,44,7.60
2016,01,24,16,46,7.60
2016,01,24,16,47,7.60
2016,01,24,16,48,7.60
2016,01,24,16,49,7.60
2016,01,24,16,51,7.60
2016,01,24,16,52,7.60
2016,01,24,16,53,7.60
2016,01,24,16,54,7.60
2016,01,24,16,56,7.60
2016,01,24,16,57,7.50
2016,01,24,16,58,7.50
2016,01,24,16,59,7.50
2016,01,24,17,01,7.50
2016,01,24,17,02,7.40
2016,01,24,17,03,7.40
2016,01,24,17,04,7.40
2016,01,24,17,06,7.40
2016,01,24,17,07,7.30
2016,01,24,17,08,7.30
2016,01,24,17,09,7.30
2016,01,24,17,11,7.30
2016,01,24,17,12,7.30
2016,01,24,17,13,7.30
2016,01,24,17,14,7.30
2016,01,24,17,16,7.30
2016,01,24,17,17,7.30
2016,01,24,17,18,7.30
2016,01,24,17,19,7.30
2016,01,24,17,21,7.30
2016,01,24,17,22,7.30
2016,01,24,17,23,7.30
2016,01,24,17,24,7.30
2016,01,24,17,26,7.30
2016,01,24,17,27,7.30
2016,01,24,17,28,7.30
2016,01,24,17,29,7.30
2016,01,24,17,31,7.30
2016,01,24,17,32,7.30
2016,01,24,17,33,7.30
2016,01,24,17,34,7.30
2016,01,24,17,36,7.30
2016,01,24,17,37,7.30
2016,01,24,17,38,7.30
2016,01,24,17,39,7.30
2016,01,24,17,41,7.30
2016,01,24,17,42,7.30
2016,01,24,17,43,7.30
2016,01,24,17,44,7.30
2016,01,24,17,46,7.30
2016,01,24,17,47,7.30
2016,01,24,17,48,7.30
2016,01,24,17,49,7.30
2016,01,24,17,51,7.30
2016,01,24,17,52,7.30
2016,01,24,17,53,7.30
2016,01,24,17,54,7.30
2016,01,24,17,55,7.30
2016,01,24,17,56,7.30
2016,01,24,17,57,7.30
2016,01,24,17,58,7.40
2016,01,24,17,59,7.40
2016,01,24,18,00,7.40
2016,01,24,18,01,7.40
2016,01,24,18,02,7.40
2016,01,24,18,03,7.40
2016,01,24,18,04,7.40
2016,01,24,18,05,7.50
2016,01,24,18,06,7.50
2016,01,24,18,07,7.50
2016,01,24,18,08,7.50
2016,01,24,18,09,7.50
2016,01,24,18,10,7.50
2016,01,24,18,11,7.50
2016,01,24,18,12,7.50
2016,01,24,18,13,7.50
2016,01,24,18,14,7.60
2016,01,24,18,15,7.60
2016,01,24,18,16,7.60
2016,01,24,18,17,7.60
2016,01,24,18,18,7.60
2016,01,24,18,19,7.60
2016,01,24,18,20,7.70
2016,01,24,18,21,7.70
2016,01,24,18,22,7.70
2016,01,24,18,23,7.70
2016,01,24,18,24,7.70
2016,01,24,18,25,7.70
2016,01,24,18,26,7.70
2016,01,24,18,27,7.70
2016,01,24,18,28,7.70
2016,01,24,18,29,7.70
2016,01,24,18,30,7.70
2016,01,24,18,31,7.70
2016,01,24,18,32,7.70
2016,01,24,18,33,7.70
2016,01,24,18,34,7.70
2016,01,24,18,35,7.70
2016,01,24,18,36,7.70
2016,01,24,18,37,7.70
2016,01,24,18,38,7.70
2016,01,24,18,39,7.70
2016,01,24,18,40,7.70
2016,01,24,18,41,7.70
2016,01,24,18,42,7.70
2016,01,24,18,43,7.80
2016,01,24,18,44,7.80
2016,01,24,18,45,7.80
2016,01,24,18,46,7.80
2016,01,24,18,47,7.80
2016,01,24,18,48,7.80
2016,01,24,18,49,7.70
2016,01,24,18,50,7.80
2016,01,24,18,51,7.80
2016,01,24,18,52,7.80
2016,01,24,18,53,7.80
2016,01,24,18,54,7.80
2016,01,24,18,56,7.80
2016,01,24,18,57,7.80
2016,01,24,18,58,7.80
2016,01,24,18,59,7.80
2016,01,24,19,00,7.80
2016,01,24,19,02,7.80
2016,01,24,19,03,7.80
2016,01,24,19,04,7.80
2016,01,24,19,06,7.70
2016,01,24,19,07,7.70
2016,01,24,19,08,7.70
2016,01,24,19,09,7.70
2016,01,24,19,11,7.70
2016,01,24,19,12,7.70
2016,01,24,19,13,7.70
2016,01,24,19,14,7.70
2016,01,24,19,16,7.70
2016,01,24,19,17,7.70
2016,01,24,19,18,7.70
2016,01,24,19,19,7.70
2016,01,24,19,21,7.70
2016,01,24,19,22,7.70
2016,01,24,19,23,7.70
2016,01,24,19,24,7.70
2016,01,24,19,26,7.70
2016,01,24,19,27,7.70
2016,01,24,19,28,7.70
2016,01,24,19,29,7.70
2016,01,24,19,31,7.70
2016,01,24,19,32,7.70
2016,01,24,19,33,7.70
2016,01,24,19,34,7.70
2016,01,24,19,36,7.70
2016,01,24,19,37,7.70
2016,01,24,19,38,7.70
2016,01,24,19,39,7.60
2016,01,24,19,41,7.60
2016,01,24,19,42,7.60
2016,01,24,19,43,7.60
2016,01,24,19,44,7.60
2016,01,24,19,46,7.60
2016,01,24,19,47,7.60
2016,01,24,19,48,7.60
2016,01,24,19,49,7.60
2016,01,24,19,51,7.60
2016,01,24,19,52,7.60
2016,01,24,19,53,7.60
2016,01,24,19,54,7.60
2016,01,24,19,56,7.60
2016,01,24,19,57,7.60
2016,01,24,19,58,7.60
2016,01,24,19,59,7.60
2016,01,24,20,01,7.60
2016,01,24,20,02,7.60
2016,01,24,20,03,7.60
2016,01,24,20,04,7.60
2016,01,24,20,06,7.50
2016,01,24,20,07,7.50
2016,01,24,20,08,7.50
2016,01,24,20,09,7.50
2016,01,24,20,10,7.50
2016,01,24,20,11,7.50
2016,01,24,20,12,7.50
2016,01,24,20,13,7.50